Date String (YYYY-MM-DD hh:mm:ss) UTC,Instrument flags,absolute air pressure of the measurement (hPa),sample flow rate (lpm),inlet stack bypass flow (lpm),air temperature of the measurement (°C),ambient temperature measured by the external sensor (°C),aerosol sample conditioner tube jacket temperature (°C),OPC LED temperature (°C),internal box temperature (°C),relative humidity of the measurement (%),span deviation,mass concentration of particles derived from Lorenz-Mie calculation of OPC scattering (μg/m³),mass concentration of particles derived from Lorenz-Mie calculation of OPC scattering (μg/m³),mass concentration of particles derived from Lorenz-Mie calculation of OPC scattering (μg/m³)
DateTimeUTC,F1_M11,P_M11,Q1_M11,Q2_M11,T1_M11,T2_M11,T3_M11,T4_M11,T5_M11,U1_M11,ZSPAN_M11,X0_M11,X2_M11,X1_M11
2024-06-10 10:00:00,SystemResetWarning,0830.3,4.99,000.00,031.0,030.3,000.0,039.4,032.7,031.1,0000.4,0015.94,0009.66,0008.89
2024-06-10 10:01:00,SystemResetWarning,0830.2,5.01,000.00,031.1,030.3,000.0,039.4,032.7,031.2,0000.6,0015.05,0009.43,0008.71
2024-06-10 10:02:00,SystemResetWarning,0830.3,5.01,000.00,031.1,030.4,000.0,039.4,032.7,031.3,0000.8,0014.93,0009.26,0008.53
2024-06-10 10:03:00,SystemResetWarning,0830.2,5.00,000.00,031.1,030.4,000.0,039.4,032.8,031.4,0000.7,0014.52,0009.07,0008.38
2024-06-10 10:04:00,SystemResetWarning,0830.2,4.99,000.00,031.1,030.4,000.0,039.4,032.8,031.5,0000.9,0014.46,0008.95,0008.24
2024-06-10 10:05:00,SystemResetWarning,0830.1,5.00,000.00,031.1,030.4,000.0,039.5,032.8,031.7,0000.0,0014.82,0008.88,0008.12
2024-06-10 10:06:00,SystemResetWarning,0830.1,5.00,000.00,031.1,030.4,000.0,039.5,032.8,031.9,0000.0,0016.52,0008.81,0008.03
2024-06-10 10:07:00,SystemResetWarning,0830.1,5.00,000.00,031.1,030.4,000.0,039.5,032.8,031.9,0000.0,0017.34,0008.80,0007.97
2024-06-10 10:08:00,SystemResetWarning,0830.0,5.00,000.00,031.1,030.4,000.0,039.5,032.8,032.2,0000.0,0016.65,0008.75,0007.95
2024-06-10 10:09:00,SystemResetWarning,0830.0,5.00,000.00,031.1,030.4,000.0,039.5,032.8,032.3,0000.0,0015.88,0008.81,0007.98
2024-06-10 10:10:00,SystemResetWarning,0830.0,5.00,000.00,031.1,030.4,000.0,039.5,032.8,032.3,0000.0,0015.65,0008.97,0008.13
2024-06-10 10:11:00,SystemResetWarning,0830.0,5.00,000.00,031.1,030.4,000.0,039.5,032.8,032.4,0000.0,0015.78,0009.07,0008.24
2024-06-10 10:12:00,SystemResetWarning,0830.1,5.00,000.00,031.1,030.4,000.0,039.5,032.8,032.4,0000.0,0016.01,0009.20,0008.34
2024-06-10 10:13:00,SystemResetWarning,0830.0,5.00,000.00,031.1,030.4,000.0,039.6,032.8,032.5,0000.0,0016.01,0009.28,0008.44
2024-06-10 10:14:00,SystemResetWarning,0830.0,5.00,000.00,031.1,030.4,000.0,039.6,032.8,032.6,0000.0,0016.53,0009.36,0008.53
2024-06-10 10:15:00,SystemResetWarning,0830.1,5.01,000.00,031.1,030.4,000.0,039.6,032.8,032.6,0000.0,0016.82,0009.44,0008.61
2024-06-10 10:16:00,SystemResetWarning,0830.0,5.00,000.00,031.1,030.4,000.0,039.6,032.8,032.6,-000.1,0017.01,0009.49,0008.68
2024-06-10 10:17:00,SystemResetWarning,0830.1,5.00,000.00,031.1,030.4,000.0,039.6,032.8,032.5,-001.6,0015.28,0009.55,0008.75
2024-06-10 10:18:00,SystemResetWarning,0830.0,5.00,000.00,031.1,030.4,000.0,039.6,032.8,032.4,-000.5,0014.43,0009.55,0008.79
2024-06-10 10:19:00,SystemResetWarning,0830.0,4.99,000.00,031.2,030.4,000.0,039.6,032.9,032.3,-000.3,0014.56,0009.59,0008.81
2024-06-10 10:20:00,SystemResetWarning,0830.0,5.01,000.00,031.2,030.4,000.0,039.6,032.8,032.2,0000.2,0014.85,0009.57,0008.84
2024-06-10 10:21:00,SystemResetWarning,0830.0,5.01,000.00,031.2,030.4,000.0,039.6,032.8,032.1,0000.2,0015.17,0009.58,0008.85
2024-06-10 10:22:00,SystemResetWarning,0829.9,5.01,000.00,031.2,030.4,000.0,039.6,032.8,032.1,0000.8,0015.22,0009.61,0008.84
2024-06-10 10:23:00,SystemResetWarning,0829.9,4.99,000.00,031.2,030.4,000.0,039.6,032.8,032.1,0000.6,0015.14,0009.62,0008.85
2024-06-10 10:24:00,SystemResetWarning,0830.0,5.00,000.00,031.2,030.4,000.0,039.6,032.8,032.0,0000.7,0015.28,0009.63,0008.86
2024-06-10 10:25:00,SystemResetWarning,0830.0,5.00,000.00,031.2,030.4,000.0,039.6,032.8,032.0,0000.7,0015.37,0009.62,0008.88
2024-06-10 10:26:00,SystemResetWarning,0829.9,5.00,000.00,031.2,030.4,000.0,039.6,032.9,032.0,0000.4,0015.14,0009.63,0008.88
2024-06-10 10:27:00,SystemResetWarning,0830.0,4.99,000.00,031.2,030.4,000.0,039.6,032.8,031.9,0000.8,0014.76,0009.64,0008.87
2024-06-10 10:28:00,SystemResetWarning,0830.0,5.00,000.00,031.2,030.4,000.0,039.6,032.8,031.9,0000.8,0014.89,0009.62,0008.87
2024-06-10 10:29:00,SystemResetWarning,0829.9,4.99,000.00,031.2,030.4,000.0,039.6,032.8,032.0,0000.8,0015.07,0009.65,0008.90
2024-06-10 10:30:00,SystemResetWarning,0829.9,4.99,000.00,031.2,030.4,000.0,039.6,032.8,032.0,0000.9,0014.96,0009.67,0008.93
2024-06-10 10:31:00,SystemResetWarning,0829.9,5.00,000.00,031.2,030.4,000.0,039.6,032.9,032.0,0000.8,0014.63,0009.72,0008.95
2024-06-10 10:32:00,SystemResetWarning,0829.9,5.00,000.00,031.2,030.4,000.0,039.6,032.9,032.0,0000.3,0014.31,0009.76,0008.99
2024-06-10 10:33:00,SystemResetWarning,0829.9,5.01,000.00,031.2,030.4,000.0,039.6,032.9,032.0,0001.3,0014.34,0009.82,0009.04
2024-06-10 10:34:00,SystemResetWarning,0829.9,5.01,000.00,031.2,030.4,000.0,039.7,032.9,031.9,0001.7,0014.37,0009.83,0009.07
2024-06-10 10:35:00,SystemResetWarning,0829.9,5.00,000.00,031.2,030.4,000.0,039.7,032.9,031.9,0001.7,0014.21,0009.86,0009.08
2024-06-10 10:36:00,SystemResetWarning,0829.9,4.99,000.00,031.2,030.4,000.0,039.7,032.9,031.8,0001.7,0014.31,0009.91,0009.09
2024-06-10 10:37:00,SystemResetWarning,0830.0,5.00,000.00,031.2,030.4,000.0,039.7,032.9,031.7,0001.7,0014.51,0009.92,0009.12
2024-06-10 10:38:00,SystemResetWarning,0829.9,5.00,000.00,031.2,030.4,000.0,039.7,032.9,031.7,0001.7,0014.45,0009.93,0009.14
2024-06-10 10:39:00,SystemResetWarning,0830.0,5.01,000.00,031.2,030.4,000.0,039.7,032.9,031.7,0001.7,0015.02,0009.97,0009.16
2024-06-10 10:40:00,SystemResetWarning,0830.0,5.00,000.00,031.2,030.4,000.0,039.7,032.9,031.6,0001.5,0015.00,0009.97,0009.15
2024-06-10 10:41:00,SystemResetWarning,0830.0,5.00,000.00,031.2,030.4,000.0,039.7,032.9,031.5,0001.5,0015.45,0009.94,0009.14
2024-06-10 10:42:00,SystemResetWarning,0830.0,5.01,000.00,031.2,030.4,000.0,039.7,032.9,031.5,0001.3,0015.89,0009.95,0009.14
2024-06-10 10:43:00,SystemResetWarning,0830.0,5.00,000.00,031.2,030.4,000.0,039.7,032.9,031.5,0000.9,0015.87,0009.94,0009.14
2024-06-10 10:44:00,SystemResetWarning,0830.0,5.00,000.00,031.2,030.4,000.0,039.7,032.9,031.4,0000.9,0015.79,0009.88,0009.12
2024-06-10 10:45:00,SystemResetWarning,0830.0,4.99,000.00,031.2,030.4,000.0,039.7,032.9,031.4,0000.6,0016.39,0009.91,0009.09
2024-06-10 10:46:00,SystemResetWarning,0830.0,4.99,000.00,031.2,030.4,000.0,039.7,032.9,031.3,0001.1,0016.74,0009.91,0009.08
2024-06-10 10:47:00,SystemResetWarning,0830.0,5.00,000.00,031.2,030.4,000.0,039.7,032.9,031.2,0001.0,0016.12,0009.88,0009.05
2024-06-10 10:48:00,SystemResetWarning,0830.0,5.01,000.00,031.2,030.4,000.0,039.7,032.9,031.2,0001.2,0016.38,0009.85,0009.01
2024-06-10 10:49:00,SystemResetWarning,0830.0,5.00,000.00,031.2,030.4,000.0,039.7,032.9,031.1,0001.3,0016.45,0009.79,0008.97
2024-06-10 10:50:00,SystemResetWarning,0830.0,5.01,000.00,031.2,030.4,000.0,039.7,032.9,031.1,0001.6,0015.75,0009.72,0008.93
2024-06-10 10:51:00,SystemResetWarning,0830.0,5.00,000.00,031.2,030.4,000.0,039.7,032.9,031.0,0002.0,0015.48,0009.67,0008.90
2024-06-10 10:52:00,SystemResetWarning,0830.0,5.00,000.00,031.2,030.4,000.0,039.7,032.9,030.9,0001.9,0014.90,0009.60,0008.86
2024-06-10 10:53:00,SystemResetWarning,0830.0,4.99,000.00,031.2,030.4,000.0,039.7,032.9,030.8,0000.0,0014.71,0009.54,0008.80
2024-06-10 10:54:00,SystemResetWarning,0830.0,4.99,000.00,031.2,030.4,000.0,039.7,032.9,030.7,0000.0,0015.27,0009.46,0008.73
2024-06-10 10:55:00,SystemResetWarning,0830.0,5.00,000.00,031.2,030.4,000.0,039.7,032.9,030.7,0000.0,0015.39,0009.41,0008.67
2024-06-10 10:56:00,SystemResetWarning,0830.0,5.00,000.00,031.2,030.4,000.0,039.7,032.9,030.7,0000.0,0015.08,0009.29,0008.61
2024-06-10 10:57:00,SystemResetWarning,0830.0,5.00,000.00,031.2,030.4,000.0,039.7,032.9,030.9,0000.0,0014.47,0009.20,0008.56
2024-06-10 10:58:00,SystemResetWarning,0830.0,5.01,000.00,031.2,030.4,000.0,039.7,032.9,031.2,0000.0,0014.47,0009.20,0008.55
2024-06-10 10:59:00,SystemResetWarning,0830.1,5.01,000.00,031.2,030.4,000.0,039.7,032.9,031.0,0000.0,0014.48,0009.20,0008.55
